Temp
23 24 24 23 21 19 20 23 26 27 29 29 28 28 29 29 28 26 24 25 27 26 24 24 25 25 25 25 25 24 23 22 22 22 22 21 21 21 21 21 21 22 22 21 21 20 20 20 20
23 23 23 18 20 21 23 23 27 26 28 27 31 29 29 29 27 22 23 23 28 26 24 24 25 25 25 25 24 24 23 22 22 22 21 21 21 21 21 21 21 22 21 21 20 20 20 20 20
23 22 19 19 17 21 22 25 26 25 26 29 30 29 28 30 26 23 25 25 26 25 24 24 25 25 25 25 24 24 23 23 22 22 22 21 21 21 21 21 21 21 21 21 20 20 20 20 20
23 19 16 18 19 20 23 25 24 24 27 28 30 30 30 28 25 25 26 24 25 24 23 24 24 25 24 24 24 23 23 23 22 22 22 21 21 21 21 21 21 21 21 20 20 20 20 20 20
21 15 17 17 18 20 24 25 26 25 26 27 28 29 29 24 26 26 24 22 24 23 23 24 24 24 24 24 24 23 23 23 22 22 22 21 21 21 21 21 21 21 21 21 20 20 20 20 20
18 15 16 16 19 21 23 25 26 26 27 27 29 28 27 22 22 20 21 21 23 24 23 24 24 24 24 24 24 23 23 23 22 22 21 21 21 21 21 21 21 21 21 21 21 21 21 20 20
18 15 16 17 18 20 24 25 26 26 25 26 30 27 24 23 21 21 20 21 21 22 23 23 23 23 24 23 23 23 23 23 22 22 21 21 21 21 21 20 21 21 21 21 21 21 21 21 21
17 16 17 17 20 19 23 26 27 26 26 27 29 27 25 22 21 21 20 20 20 21 22 22 23 22 23 23 23 23 23 23 22 22 22 21 21 21 21 21 21 21 21 21 21 21 21 21 21
17 17 15 18 19 22 24 25 26 26 26 26 27 27 25 21 20 19 18 18 18 19 21 20 21 22 22 22 22 22 23 22 22 22 21 21 21 21 21 21 21 21 21 21 21 21 21 21 21
17 13 19 19 21 22 23 23 24 26 24 27 26 24 22 20 20 19 19 18 17 17 18 18 18 20 21 21 21 21 21 21 21 21 21 21 21 21 21 21 21 21 21 21 21 21 21 21 21
18 19 22 21 22 22 22 22 25 25 24 27 26 24 23 21 21 21 20 19 19 17 17 17 17 18 19 20 20 20 21 21 21 21 21 21 21 20 20 20 20 20 20 20 20 20 21 21 21
15 18 18 20 21 21 22 22 22 22 23 26 25 25 24 22 22 21 21 19 19 18 18 17 17 17 17 18 17 19 20 20 20 21 21 21 20 20 20 20 20 20 20 20 20 21 21 21 22
15 17 18 18 20 20 20 22 22 23 23 23 24 25 24 22 22 22 22 20 19 19 18 17 17 17 17 17 17 17 19 20 21 21 21 21 21 21 20 20 20 20 20 20 20 21 21 21 21
15 15 16 16 18 19 20 21 23 24 23 22 23 23 24 24 24 23 22 20 19 19 18 19 18 17 18 17 18 17 20 21 21 21 21 21 21 21 21 20 20 20 20 21 21 21 21 21 21
14 14 15 16 17 18 20 20 21 24 23 22 22 23 24 24 23 23 22 21 21 21 22 21 22 21 20 19 20 20 21 21 21 21 21 21 21 21 21 21 20 21 21 20 20 20 20 20 20
12 13 13 18 17 18 20 19 22 24 22 21 20 21 23 23 24 24 23 22 21 21 21 23 23 22 22 21 21 21 21 21 21 21 21 21 21 21 21 21 21 21 21 20 20 20 20 20 20
12 12 13 15 18 18 18 19 21 23 23 22 19 19 21 21 21 24 24 23 22 22 21 21 21 22 23 22 22 21 21 21 21 21 21 21 21 21 20 21 21 21 21 20 20 20 20 20 20
11 12 13 13 16 18 17 19 21 23 23 23 22 19 20 21 22 25 26 24 24 23 22 22 21 22 22 20 20 21 21 21 21 21 21 22 21 21 21 20 21 21 21 20 20 20 20 20 20
12 12 12 13 16 17 18 19 20 22 21 22 21 20 19 20 23 24 25 26 24 23 22 21 21 21 19 19 18 18 19 20 20 20 21 21 22 22 21 21 20 20 20 21 21 20 20 20 20
12 12 11 15 16 17 16 18 19 20 21 23 23 23 22 21 21 22 24 25 25 24 22 21 21 20 20 20 20 20 19 19 19 20 22 22 22 22 21 21 21 20 20 20 20 20 19 19 20
12 11 10 13 14 14 17 17 18 20 20 22 23 22 24 24 21 21 22 23 25 24 23 22 21 21 20 20 19 20 20 19 18 19 20 22 22 22 22 21 21 20 20 19 20 20 19 18 19
11 14 12 13 12 13 12 14 15 18 19 20 22 21 20 23 23 21 21 22 23 25 25 23 22 21 20 20 19 20 20 20 20 20 19 19 21 22 22 22 21 20 20 20 19 20 20 19 18
12 14 15 14 13 11 14 14 14 16 18 19 19 19 19 19 21 23 19 22 27 26 25 24 22 22 21 20 20 20 21 21 21 20 19 19 20 21 22 22 22 21 20 20 20 19 19 19 19
11 12 14 14 13 12 13 14 14 14 14 17 19 17 17 16 19 22 20 21 21 23 25 24 23 22 21 20 20 20 21 21 21 20 20 19 19 20 20 21 22 22 20 20 20 20 20 20 19
9 11 9 9 11 12 15 15 10 13 15 17 17 17 17 16 16 16 15 15 15 16 18 22 23 22 21 20 20 20 20 21 21 21 20 19 19 18 19 20 20 20 21 20 20 19 19 19 19
9 10 9 10 11 13 15 14 11 12 14 16 16 16 15 16 16 16 15 15 15 15 16 19 21 21 22 21 20 20 20 20 20 20 21 20 20 20 19 20 20 20 19 19 19 19 20 19 19
11 9 9 11 12 12 13 12 13 12 11 12 12 14 14 14 14 15 15 15 15 15 14 15 17 17 19 19 20 20 20 20 19 20 21 20 20 21 19 19 20 20 20 20 20 19 19 18 19
10 10 11 10 8 10 12 13 11 10 10 11 12 12 13 14 13 13 14 14 15 16 16 17 16 16 15 16 17 17 18 18 18 18 19 19 20 19 21 20 21 20 21 20 19 18 18 18 17
9 9 8 9 9 10 12 10 9 9 8 9 12 12 12 13 13 12 12 15 16 16 16 17 16 16 16 16 16 16 16 17 17 18 18 18 18 18 18 19 19 21 22 23 20 19 19 18 18
10 8 9 8 8 5 8 9 9 11 10 8 11 12 12 13 13 13 12 13 14 15 16 16 17 16 16 16 16 16 16 16 17 17 17 17 17 17 17 17 17 18 19 19 20 20 19 18 18
Height
774 774 773 773 799 806 808 793 771 766 759 746 741 743 740 736 751 772 725 727 733 746 757 764 770 775 777 780 783 786 789 792 796 800 803 805 807 810 812 814 816 818 821 822 824 827 828 830 831
773 773 774 784 807 813 797 781 772 761 754 745 736 740 743 744 731 735 735 733 736 745 755 761 768 774 777 780 783 787 790 794 797 801 804 807 809 811 813 815 818 820 823 825 826 828 830 831 833
773 773 782 795 810 804 798 772 764 755 751 749 743 732 741 735 727 731 733 732 738 747 755 760 766 772 777 781 785 788 792 795 798 802 805 808 810 813 815 817 819 822 824 827 828 830 832 834 835
773 775 786 802 802 785 775 766 764 760 745 743 740 741 725 725 723 729 733 736 739 747 755 760 766 772 776 781 785 789 793 796 799 802 805 809 812 814 817 819 821 823 825 828 830 832 834 836 838
774 784 802 804 797 779 764 761 759 761 756 749 745 743 735 728 727 729 734 739 740 747 755 760 767 773 777 780 784 790 793 797 800 803 806 809 812 815 818 820 822 824 826 829 831 833 835 837 839
784 791 811 810 790 773 764 756 756 757 751 747 746 740 735 732 730 733 739 745 748 746 754 759 767 773 777 782 786 789 793 797 801 804 807 810 812 816 818 821 823 825 827 830 831 834 836 838 840
786 799 804 796 791 780 763 752 757 755 754 750 736 746 739 736 734 734 741 747 750 751 754 760 767 774 778 783 786 790 793 797 800 804 808 811 813 816 818 821 824 826 828 831 832 834 836 839 841
779 788 794 791 779 783 758 752 748 752 749 734 730 742 741 730 734 737 742 748 752 754 757 760 766 773 778 783 787 790 794 797 800 804 807 811 814 816 819 821 824 826 828 831 833 835 837 839 841
774 791 793 780 778 766 750 755 745 741 745 740 734 728 722 728 733 739 744 750 755 758 759 762 766 772 778 783 787 791 794 797 801 804 808 811 813 816 819 821 823 826 828 831 833 835 837 839 841
780 795 767 761 759 758 754 754 750 749 749 742 735 731 727 730 731 736 739 747 753 756 759 763 767 771 777 782 786 790 794 797 800 803 807 810 813 815 818 821 824 826 829 831 833 835 837 839 840
773 766 747 754 754 753 754 755 747 749 751 740 740 734 738 732 732 737 740 736 741 752 758 762 766 771 776 780 785 789 792 795 799 802 805 809 812 815 818 820 823 825 828 830 832 834 836 837 839
781 753 758 756 755 756 754 750 752 749 743 734 733 732 736 739 732 732 737 740 743 749 755 759 765 770 775 779 782 785 789 793 797 800 803 807 810 813 816 819 821 824 827 829 831 833 835 836 838
774 754 757 757 758 756 752 748 753 741 736 733 732 733 732 737 740 738 737 742 744 746 751 756 762 768 772 776 780 783 786 790 794 798 801 804 807 810 814 817 821 823 825 828 830 831 833 835 837
771 765 763 761 757 756 753 748 748 721 728 731 732 732 730 729 732 740 741 739 743 747 750 754 759 765 769 773 776 779 783 787 791 795 798 802 805 808 811 815 818 821 824 826 828 830 832 833 835
776 771 759 752 753 755 747 752 746 705 728 729 731 729 728 725 727 732 735 733 734 738 743 748 754 760 766 770 773 777 780 784 788 791 795 798 802 806 809 812 815 818 821 824 827 828 830 831 832
783 774 768 732 745 747 748 741 727 703 727 731 730 728 727 726 721 724 729 733 736 738 741 744 750 755 761 766 770 775 778 781 785 788 791 795 799 803 806 809 812 815 818 820 823 825 826 827 829
779 771 760 753 740 742 745 730 718 713 720 724 727 726 724 724 721 720 722 726 731 734 737 740 745 749 754 761 766 771 775 778 781 784 787 791 795 799 803 804 807 811 814 816 818 820 822 823 825
781 770 765 761 745 737 741 724 716 715 717 717 718 724 722 719 715 715 717 719 722 729 733 736 739 742 749 755 762 766 771 774 776 779 783 788 791 795 798 801 804 807 810 812 814 816 818 819 822
774 772 770 761 748 740 738 724 715 715 718 715 716 716 717 714 707 709 711 714 717 721 727 731 736 738 745 751 756 760 760 765 770 774 779 783 787 790 793 796 800 803 804 806 809 812 814 815 819
770 770 770 754 748 741 738 725 719 717 712 707 707 707 705 707 705 702 704 709 711 714 718 724 727 731 735 740 745 752 756 761 765 769 773 776 781 784 788 791 794 797 799 801 803 806 809 811 815
764 771 776 758 752 748 737 728 719 711 705 701 697 699 695 697 700 696 696 700 704 708 709 713 718 724 728 733 740 747 756 760 762 762 764 766 771 776 780 784 787 791 794 794 797 800 803 807 809
760 751 760 759 760 755 758 747 728 715 708 702 694 695 696 691 689 691 691 694 699 699 702 704 708 714 718 726 732 734 737 741 742 747 754 760 763 767 771 776 780 783 786 789 791 795 798 802 804
750 739 742 747 751 767 747 750 736 719 713 706 698 696 694 692 684 682 687 687 686 690 691 694 696 701 707 714 719 724 728 731 736 742 747 752 756 759 762 766 770 772 776 780 784 788 792 794 799
746 742 740 746 751 760 748 747 741 740 736 714 705 703 700 694 683 675 678 684 683 684 685 687 691 695 700 706 710 716 719 723 732 736 739 742 746 752 758 761 762 765 768 769 775 780 782 785 788
752 750 770 781 760 751 731 733 764 745 723 712 712 706 703 695 692 688 685 682 680 681 682 682 687 691 696 702 707 710 714 721 721 725 730 737 741 745 748 754 759 760 761 763 765 769 775 777 780
759 751 767 760 755 744 730 732 758 749 738 727 721 712 708 703 701 702 696 693 689 687 684 683 686 691 693 700 703 710 713 718 724 727 731 735 737 737 745 739 746 751 758 759 759 761 763 767 769
745 758 760 744 742 741 735 745 737 745 744 738 735 726 722 719 713 715 705 704 698 696 694 691 690 695 696 699 703 709 711 715 718 721 725 730 735 735 740 733 733 744 747 751 752 754 759 761 762
760 764 751 759 784 757 738 744 759 766 761 755 746 739 732 729 725 724 716 712 708 706 703 700 702 703 704 704 705 708 710 713 716 708 711 725 733 735 744 733 733 737 739 742 744 746 750 753 756
773 772 774 767 772 766 746 770 781 776 776 768 758 754 749 739 735 733 724 719 718 715 713 711 712 713 713 717 715 713 714 712 712 711 709 721 729 734 736 735 731 729 731 734 734 735 739 746 749
777 787 777 783 789 804 784 782 782 771 772 776 763 759 754 748 740 737 734 728 725 724 722 718 719 720 721 725 723 719 717 717 717 718 719 722 726 727 728 727 728 726 728 729 728 730 732 740 741
Wind_Speed
15 13 9 3 3 4 4 5 2 6 2 3 6 5 19 7 7 5 6 32 51 48 45 40 36 32 30 29 28 27 29 30 31 31 31 30 29 27 25 24 22 20 19 20 21 21 22 23 24
15 8 3 2 3 1 4 4 5 8 2 12 0 2 4 6 1 4 14 32 47 53 47 43 38 34 31 30 29 28 29 29 30 29 29 28 27 25 24 22 21 19 19 21 22 23 24 24 24
10 1 3 4 4 6 4 4 2 9 5 4 6 4 4 4 3 16 6 38 47 52 48 44 40 36 33 31 29 29 29 29 29 28 27 26 25 23 22 21 19 19 20 21 22 23 23 24 24
2 6 4 3 9 6 5 4 6 11 8 5 4 5 1 3 10 13 26 41 52 51 47 44 40 38 34 32 30 29 29 29 29 27 26 24 23 21 21 20 19 19 21 22 21 22 22 23 22
3 3 0 3 7 5 3 4 3 8 6 7 7 7 2 6 7 16 39 42 53 51 47 44 40 38 35 33 31 29 28 28 27 27 26 24 22 20 19 18 18 19 20 22 21 20 21 21 19
3 3 2 6 7 5 4 2 2 4 6 7 5 4 2 7 18 28 34 33 44 51 46 44 40 38 36 33 31 30 29 28 27 26 25 24 22 20 18 17 17 18 19 21 21 20 20 19 17
5 4 5 5 5 7 3 4 2 5 6 6 2 4 3 4 19 32 30 34 39 44 45 44 41 38 36 34 32 30 29 28 27 26 24 23 21 20 18 17 17 17 18 19 20 20 19 18 15
4 4 4 6 9 9 5 2 1 4 8 7 3 6 6 6 26 32 32 32 36 39 40 41 41 38 36 34 32 31 29 28 27 26 25 23 21 20 19 18 18 17 17 18 19 19 19 17 15
4 1 7 8 8 5 1 2 3 3 4 6 4 5 4 29 31 28 28 27 26 31 36 36 39 38 37 35 32 30 29 28 26 25 24 23 22 21 20 19 18 17 17 17 18 17 17 16 14
4 4 10 5 7 3 3 4 2 4 6 5 7 11 22 29 30 26 25 24 25 25 26 29 32 36 37 35 34 32 30 29 28 27 26 25 23 22 20 18 17 17 17 16 16 16 16 16 14
4 16 18 6 3 4 2 5 3 2 5 4 6 5 2 18 19 18 21 32 35 29 25 25 27 30 37 36 35 33 32 31 30 29 28 26 24 22 21 20 19 18 17 17 17 17 17 16 15
7 16 5 1 4 6 4 4 6 6 6 6 6 3 7 7 13 16 20 24 33 35 31 27 27 27 28 32 29 34 35 34 33 31 30 28 27 25 23 22 21 20 19 18 18 17 16 16 15
16 24 6 4 5 8 9 17 7 20 8 8 8 6 13 10 9 10 16 19 28 35 37 32 29 29 29 30 29 31 37 38 35 33 31 30 29 28 26 23 22 21 20 19 19 18 17 16 15
9 18 19 9 11 11 13 10 4 27 7 10 9 10 9 17 15 9 16 22 26 27 34 40 36 33 34 34 34 34 39 39 37 35 34 33 31 30 28 26 25 23 22 20 20 19 18 17 16
11 20 19 16 7 9 9 13 18 34 6 9 10 9 8 14 19 17 25 28 39 42 45 45 42 40 38 39 39 39 40 40 39 38 36 35 33 31 29 28 27 25 23 21 20 20 19 19 18
8 11 6 5 13 8 8 22 21 29 6 12 10 9 9 9 12 24 26 29 30 31 40 46 45 44 42 41 39 38 39 40 40 39 38 36 35 33 31 29 28 26 24 23 23 23 23 22 21
8 13 10 12 9 6 13 24 22 14 6 9 9 10 10 10 9 18 30 31 31 36 39 42 44 48 47 44 41 39 40 40 40 40 39 38 36 35 33 32 30 27 27 26 25 25 26 25 24
12 15 14 10 7 10 8 24 17 10 5 13 12 10 10 12 13 22 26 32 36 38 38 43 45 48 48 42 42 41 41 41 41 42 41 39 38 37 36 35 33 30 29 29 29 28 26 28 25
16 20 17 16 10 19 12 23 20 15 9 14 8 8 10 11 14 23 24 29 33 36 37 39 40 44 39 35 34 33 40 43 42 43 41 40 40 39 39 38 36 34 35 34 32 31 29 29 26
18 17 19 14 12 14 10 20 13 8 10 15 13 13 11 7 10 10 18 25 34 33 36 37 43 42 45 40 42 35 33 32 39 41 44 43 42 41 41 41 41 40 38 37 36 35 31 30 29
15 15 9 15 11 17 12 17 12 7 9 11 13 12 15 13 12 10 9 19 30 32 36 40 42 40 42 42 35 30 24 21 26 34 42 47 45 44 43 43 43 42 42 39 40 39 36 23 27
14 11 16 16 1 4 11 4 5 4 3 6 13 10 12 16 11 9 10 10 21 33 38 41 43 42 46 43 37 39 38 33 39 40 39 39 45 45 44 42 43 43 42 42 38 40 39 32 21
10 12 11 7 4 4 8 5 6 4 4 9 7 8 8 10 14 14 10 20 33 24 32 37 44 45 43 46 45 43 38 37 34 30 32 36 42 46 47 46 45 46 43 41 39 36 36 35 30
8 3 5 6 2 6 9 5 3 8 14 12 10 12 11 11 12 11 2 4 9 17 22 34 37 39 42 44 46 43 42 35 29 30 31 36 39 43 46 46 47 48 45 45 42 42 42 41 37
6 3 2 1 4 3 4 5 7 15 23 6 13 16 16 16 16 10 10 9 14 9 6 24 29 31 33 36 37 41 40 35 35 33 34 29 29 31 39 47 44 44 48 42 40 39 41 40 37
3 3 5 5 5 6 5 3 5 13 16 17 18 18 20 19 16 15 13 11 17 19 15 7 16 18 27 29 30 30 32 29 26 23 22 24 25 23 32 42 45 44 40 40 40 39 43 41 42
1 3 3 3 2 1 4 6 5 20 21 23 23 20 20 19 16 13 14 18 21 24 25 25 22 14 9 19 24 24 27 25 29 31 23 21 26 26 31 36 39 43 44 43 42 38 39 38 40
10 5 4 3 2 3 3 6 5 14 17 19 20 20 19 17 15 11 10 16 21 25 29 34 31 29 23 16 10 11 8 14 21 21 18 12 23 25 50 41 39 38 39 40 38 36 37 35 35
6 10 4 2 3 2 1 5 10 9 11 16 13 13 15 16 12 9 10 16 21 25 28 29 29 28 27 24 23 23 21 20 12 2 5 5 11 19 30 38 37 34 34 36 35 37 33 31 35
2 7 4 3 5 1 3 4 7 6 7 12 15 12 12 13 12 15 13 19 21 20 22 25 25 27 25 22 23 24 22 20 20 17 13 10 8 6 3 8 19 24 28 31 33 34 33 35 34
Wind_Direction
329 331 324 23 48 64 263 254 260 275 331 357 227 171 182 174 163 212 349 162 163 168 172 168 166 161 155 149 145 141 140 139 139 141 142 142 140 137 133 131 130 129 128 126 125 125 124 124 125
332 340 46 75 115 191 256 217 254 258 299 322 336 63 183 221 181 84 134 162 164 166 170 168 168 164 159 154 150 147 145 144 142 142 143 143 141 139 136 135 134 132 131 130 129 129 128 128 126
331 3 91 136 180 210 211 220 340 300 296 255 302 160 196 243 111 165 201 164 165 167 170 168 168 167 162 158 155 152 151 149 148 146 145 144 142 141 139 138 137 136 135 135 135 133 132 131 130
323 17 30 127 236 252 184 309 347 320 338 85 325 279 330 347 148 185 174 166 165 169 171 168 170 169 166 162 160 157 155 154 152 151 149 148 145 145 145 144 143 142 141 141 140 139 137 136 135
51 65 57 256 253 260 260 283 302 294 290 301 326 267 245 2 164 169 165 165 165 168 172 169 172 173 169 166 163 162 159 158 156 155 153 152 150 150 149 149 148 147 146 146 146 146 145 143 142
43 96 104 235 243 250 274 228 269 269 279 306 319 265 145 130 134 146 157 163 169 169 172 170 174 176 173 170 168 166 164 162 161 160 158 157 155 154 154 153 153 151 151 151 153 154 153 153 152
136 105 215 231 262 287 227 194 205 290 295 305 289 255 339 166 146 149 156 167 168 170 171 171 175 178 177 176 173 171 169 167 166 166 165 163 162 160 160 159 159 157 157 157 159 162 163 163 161
134 128 210 223 233 265 233 197 264 301 284 311 227 211 244 170 148 154 161 162 167 169 173 173 176 180 180 180 178 176 174 173 171 171 170 170 169 168 167 166 166 165 165 165 166 169 170 172 172
122 235 228 211 202 227 43 131 310 277 276 316 308 243 167 139 145 138 140 152 159 169 174 175 178 182 184 184 182 181 179 178 176 176 176 175 176 175 175 175 173 173 173 173 174 175 178 181 185
168 207 240 184 205 247 333 241 293 315 320 315 356 26 136 145 148 153 158 159 166 169 170 175 178 184 186 186 184 184 183 182 181 181 181 183 183 182 182 181 181 181 182 183 183 185 187 192 196
225 236 231 288 245 226 221 298 265 286 274 214 323 122 206 160 157 167 174 173 174 170 169 174 175 183 189 188 187 187 187 187 187 187 187 187 187 188 189 187 187 189 190 191 193 195 199 203 208
281 255 234 276 344 321 293 308 285 233 243 282 303 182 161 218 180 173 175 174 173 178 178 177 177 180 185 189 185 189 191 192 192 192 192 190 191 193 194 196 195 196 198 200 203 206 209 213 216
258 267 305 319 285 278 283 265 277 275 231 269 282 273 180 201 241 226 182 175 176 180 185 182 182 184 185 188 187 190 194 196 197 196 197 197 197 197 198 201 205 205 205 209 211 214 217 222 225
304 297 291 294 271 248 264 281 214 263 162 228 231 249 217 194 206 200 187 177 187 188 189 194 191 192 192 191 193 193 197 199 200 201 201 203 203 203 202 204 208 211 213 216 219 223 225 229 233
305 301 299 258 236 238 223 250 234 248 121 226 213 231 247 206 181 193 199 189 190 195 195 198 200 202 202 203 204 203 201 202 203 204 206 206 208 208 208 209 212 214 217 220 225 227 230 233 236
294 286 275 257 201 226 190 255 235 256 176 237 206 219 229 239 190 194 197 205 201 191 196 200 202 204 205 208 209 208 207 207 208 209 209 210 211 212 211 213 217 217 218 221 226 229 231 232 234
225 259 259 294 221 222 191 248 244 257 236 236 210 210 224 233 236 210 197 201 202 201 198 199 200 205 207 209 211 212 213 213 213 214 214 214 214 215 216 217 219 219 221 224 227 230 231 233 232
256 261 270 268 312 221 216 250 250 259 295 244 229 205 217 229 231 226 210 202 203 204 205 203 201 205 207 206 208 212 215 217 217 219 220 219 218 218 220 223 224 221 222 225 228 231 232 233 237
252 272 274 291 302 264 260 251 256 260 245 258 256 230 218 222 233 228 224 211 202 201 200 203 200 206 197 194 196 202 208 214 218 221 224 225 223 223 222 224 228 225 226 228 229 231 232 233 235
269 241 273 287 280 280 278 262 260 253 238 235 233 244 239 217 244 245 226 208 204 201 201 202 207 202 200 196 203 207 207 211 217 220 225 228 228 227 227 226 228 230 230 231 231 231 229 236 233
250 230 263 266 305 307 269 280 273 265 231 240 240 226 246 226 219 231 230 198 204 202 201 203 206 203 201 202 197 201 206 213 212 217 222 226 228 228 229 230 230 232 232 232 233 232 231 227 233
234 209 227 261 55 259 353 287 294 336 293 262 242 230 227 245 230 210 221 231 201 208 209 207 205 203 205 200 194 193 195 202 211 212 215 219 225 226 227 229 231 230 231 231 235 236 234 228 223
239 200 204 256 225 357 303 233 275 327 302 277 266 274 278 260 252 245 199 217 242 224 216 207 204 204 201 199 200 198 201 210 213 208 208 213 222 226 226 226 228 231 231 232 230 232 234 233 228
260 264 182 225 191 252 225 194 300 2 323 312 21 21 356 339 300 269 9 189 238 234 225 210 204 206 201 199 200 203 206 204 203 203 204 207 215 221 226 229 229 231 230 232 233 235 239 236 233
32 99 114 71 192 218 227 162 41 342 355 82 48 33 21 31 25 28 32 20 23 1 280 216 209 202 200 200 202 206 209 210 205 200 203 202 206 210 217 225 228 228 231 228 228 232 236 235 230
310 245 148 192 177 197 203 208 32 7 12 27 26 32 22 22 27 27 32 26 38 38 46 117 174 183 195 200 201 210 210 214 215 211 212 209 211 220 229 224 223 229 231 234 232 232 238 235 238
115 63 347 295 121 42 193 79 16 4 8 10 9 15 20 10 19 9 29 33 41 44 48 63 79 83 139 187 196 200 205 209 213 221 212 218 239 263 257 234 231 231 234 235 234 232 234 235 236
66 341 15 3 120 241 65 73 22 1 356 360 3 9 9 5 7 358 21 25 39 56 60 66 67 69 74 93 151 167 157 196 210 229 220 234 240 239 257 268 252 240 241 237 235 232 238 235 236
13 24 342 353 24 3 195 81 356 350 354 354 357 8 15 360 359 349 351 31 51 56 61 62 61 64 65 67 76 85 86 82 84 96 294 301 256 230 240 246 246 250 246 250 241 236 238 244 240
112 21 15 54 339 57 335 91 287 317 40 6 349 21 6 14 14 21 23 12 19 32 57 59 60 59 56 55 58 63 66 65 63 57 44 32 36 48 35 259 252 252 248 250 250 250 248 234 237